Location: Lancaster
(34.6980°N, 118.1360°W)
Time: 13:39:08
(UTC-07:00)

Vanguard 1 Rocket - All Passes

Search period start: 20 July 2018 00:00
Search period end: 30 July 2018 00:00
Orbit: 652 x 4225 km, 34.3° (Epoch: 20 July)

Date Brightness Start Highest point End Pass type
(mag) Time Alt. Az. Time Alt. Az. Time Alt. Az.
20 Jul - 05:50:40 10° SSW 06:12:29 36° SE 06:28:39 10° E daylight
20 Jul - 08:19:21 10° SW 08:43:10 67° SSE 08:56:25 10° E daylight
20 Jul - 10:53:44 10° W 11:12:27 88° S 11:21:32 10° E daylight
20 Jul - 13:27:35 10° W 13:39:22 67° SSW 13:45:31 10° ESE daylight
20 Jul - 15:59:40 10° WSW 16:03:17 15° SW 16:06:13 10° S daylight
21 Jul - 04:40:00 10° S 04:58:24 25° SE 05:14:05 10° E visible
21 Jul - 07:04:45 10° SW 07:29:15 55° SSE 07:44:48 10° E daylight
21 Jul - 09:37:27 10° WSW 09:59:34 83° S 10:10:47 10° E daylight
21 Jul - 12:12:29 10° W 12:27:50 83° SSW 12:35:21 10° ESE daylight
21 Jul - 14:45:00 10° W 14:53:04 33° SW 14:58:04 10° SSE daylight
22 Jul - 03:33:10 10° SSE 03:44:30 15° SE 03:55:20 10° ESE visible
22 Jul - 05:51:33 10° SSW 06:15:01 44° SE 06:32:21 10° E daylight
22 Jul - 08:21:30 10° WSW 08:46:02 74° SSE 08:59:41 10° E daylight
22 Jul - 10:56:31 10° W 11:15:35 89° S 11:24:51 10° E daylight
22 Jul - 13:30:31 10° WNW 13:42:22 57° SSW 13:48:37 10° SE daylight
23 Jul - 04:40:02 10° SSW 05:00:47 32° SE 05:18:31 10° E visible
23 Jul - 07:06:31 10° SW 07:31:55 64° SSE 07:48:05 10° ENE daylight
23 Jul - 09:40:05 10° WSW 10:02:36 87° S 10:14:03 10° E daylight
23 Jul - 12:15:20 10° W 12:30:57 77° SSW 12:38:36 10° ESE daylight
23 Jul - 14:48:23 10° W 14:55:44 25° SW 15:00:34 10° S daylight
24 Jul - 03:30:59 10° S 03:46:52 21° SE 04:02:04 10° E visible
24 Jul - 05:52:51 10° SW 06:17:28 52° SSE 06:35:47 10° ENE daylight
24 Jul - 08:23:53 10° WSW 08:48:55 81° SSE 09:02:55 10° E daylight
24 Jul - 10:59:20 10° W 11:18:44 87° S 11:28:09 10° E daylight
24 Jul - 13:33:27 10° WNW 13:45:13 47° SW 13:51:34 10° SE daylight
25 Jul - 04:40:45 10° SSW 05:03:04 39° SE 05:22:21 10° E visible
25 Jul - 07:08:34 10° SW 07:34:36 71° SSE 07:51:18 10° ENE daylight
25 Jul - 09:42:49 10° W 10:05:40 89° S 10:17:20 10° E daylight
25 Jul - 12:18:08 10° WNW 12:33:57 68° SSW 12:41:46 10° ESE daylight
25 Jul - 14:52:06 10° W 14:58:15 19° SW 15:02:38 10° S daylight
26 Jul - 03:30:34 10° S 03:49:01 27° SE 04:07:03 10° E visible
26 Jul - 05:54:33 10° SW 06:19:55 59° SSE 06:39:03 10° ENE daylight
26 Jul - 08:26:26 10° WSW 08:51:49 85° S 09:06:09 10° E daylight
26 Jul - 11:02:07 10° W 11:21:48 83° SSW 11:31:25 10° ESE daylight
26 Jul - 13:36:29 10° W 13:47:54 38° SW 13:54:20 10° SSE daylight
27 Jul - 02:23:55 10° SSE 02:35:31 15° SE 02:47:35 10° E visible
27 Jul - 04:41:59 10° SSW 05:05:17 47° SE 05:25:51 10° ENE visible
27 Jul - 07:10:52 10° WSW 07:37:18 77° SSE 07:54:29 10° E daylight
27 Jul - 09:45:35 10° W 10:08:43 89° S 10:20:37 10° E daylight
27 Jul - 12:20:56 10° WNW 12:36:49 59° SSW 12:44:49 10° SE daylight
27 Jul - 14:56:37 10° W 15:00:39 13° SW 15:03:53 10° SSW daylight
28 Jul - 03:31:05 10° SSW 03:51:05 34° SE 04:11:11 10° E visible
28 Jul - 05:56:32 10° SW 06:22:22 67° SSE 06:42:12 10° ENE daylight
28 Jul - 08:29:07 10° W 08:54:46 88° S 09:09:22 10° E daylight
28 Jul - 11:04:52 10° W 11:24:47 77° SSW 11:34:37 10° ESE daylight
28 Jul - 13:39:41 10° W 13:50:24 30° SW 13:56:49 10° SSE daylight
29 Jul - 02:22:30 10° S 02:37:33 21° SE 02:53:50 10° E visible
29 Jul - 04:43:36 10° SW 05:07:29 54° SE 05:29:07 10° ENE visible
29 Jul - 07:13:22 10° WSW 07:40:03 83° SSE 07:57:38 10° E daylight
29 Jul - 09:48:21 10° W 10:11:45 87° S 10:23:52 10° ESE daylight
29 Jul - 12:23:45 10° WNW 12:39:31 50° SW 12:47:42 10° SE daylight
